User: anonymous   Login
Location: Unspecified
(0.0000°N, 0.0000°E)
Time: 05:23:33
(UTC+01:00)
Language:

CZ-4 DEB - Orbit

View from above orbital plane
View from above orbital plane
View from above satellite
View from above satellite

Ground track
Ground track

The orbit data is extracted from the following two-line orbital elements,

1 29508U 06046D   14298.12686444  .00031570  00000-0  16688-2 0  7130
2 29508 097.7028 306.4394 0005381 185.1606 215.0294 15.15404792436961
Epoch (UTC): 25 October 2014 03:02:41
Eccentricity: 0.0005381
inclination: 97.7028°
perigee height: 516 km
apogee height: 523 km
right ascension of ascending node: 306.4394°
argument of perigee: 185.1606°
revolutions per day: 15.15404792
mean anomaly at epoch: 215.0294°
orbit number at epoch: 43696

The dashed part of the orbit path shows where the satellite is in the earth's shadow,  

DLR